Location: 433rd Scouts Home(Lloyd Manor Park, Etobicoke )
(43.6722°N, 79.5542°W)
Time: 07:04:09
(UTC-04:00)

Tiangong - Visible Passes

Search period start: 21 September 2021 00:00
Search period end: 01 October 2021 00:00
Orbit: 380 x 385 km, 41.5° (Epoch: 20 September)

Date Brightness Start Highest point End Pass type
(mag) Time Alt. Az. Time Alt. Az. Time Alt. Az.
24 Sep 3.8 06:32:26 10° S 06:34:00 13° SSE 06:35:34 10° ESE visible
26 Sep 3.2 06:07:49 10° SSW 06:10:13 20° SSE 06:12:37 10° ESE visible
27 Sep 3.8 05:10:32 13° SE 05:10:32 13° SE 05:11:49 10° ESE visible
28 Sep 2.5 05:45:35 24° SSW 05:46:31 29° SSE 05:49:18 10° E visible
29 Sep 4.1 04:48:23 13° ESE 04:48:23 13° ESE 04:48:55 10° ESE visible
29 Sep 1.6 06:20:34 15° WSW 06:22:57 50° S 06:26:02 10° E visible
30 Sep 2.2 05:23:21 37° SE 05:23:21 37° SE 05:25:52 10° E visible
